Voltar ao catálogo

BREEZE-M DEB

LostHEO
NORAD 47109·DEBRIS·🇷🇺 Russia

Lançado Feb 28, 2006 de Baikonur Cosmodrome

Loading…

Próximas Passagens (próximas 24 horas)

TLE

ObsoletoSource: Space-Track

Época: Sep 2, 2025, 23:17 UTC

1 47109U 06006DH  25245.97068184  .00118223  00000-0  15325-1 0  9998
2 47109  51.6778 110.0438 2608283 184.0952 173.3780  9.97659186  2744

Acompanhe BREEZE-M DEB em tempo real com AllMySat

Download on the App Store